STARLINK-1199, 45201

Orbit data source: Space-Track

STARLINK-1199, 45201 is a payload satellite owned by SpaceX/Seattle (US) in LEO that was launched on Mon, 17 Feb 2020 UTC via an FALCON 9 launch vehicle from the Air Force Eastern Test Range (AFETR). Payload-class satellites include a variety of spacecraft equipped with specific instruments for various scientific and technological missions. These include communications satellites like Starlink; space stations such as the ISS; scientific satellites like the Hubble; Earth observation satellites from companies like Planet Labs, Umbra, and HawkEye 360; GPS; miniature CubeSats for education and research; and military/defense satellites.

Loading next visibility...
Identifier
45201, 2020-012Z
Orbit
LEO
Country
Flag of USUS
Related business
Manufacturer
SpaceX/Seattle
Mission
Partially operational Commercial Communications
Bus & Motor
STARLINK, Unknown motor
Mass
260 kg wet, ~248 kg dry
Launch date (UTC)
2020-02-17 (6 years ago)
Launch vehicle
FALCON 9
Launch site
Air Force Eastern Test Range (AFETR)
Object type
Payload
Rocket body
Debris
Shape & HBR
Box + 1 Pan, 10.1 m
Radar Cross Section
13.562 m², Large (>1 m²)

Expand to show TLE details & history
Last TLE update: 2 days ago

TLE from 2 days ago
0 STARLINK-1199
1 45201U 20012Z   26171.45337584  .00034580  00000-0  97517-3 0  9995
2 45201  53.1558 265.0349 0003719 329.8149  30.2639 15.36110825350919
Epoch: 2026-06-20T10:52Z
TLE epoch observation values (Epoch: 2026-06-20T10:52:51.672Z)
Latitude
-0.00007°
Longitude
-166.84823°
Altitude
456.329 km
Speed
7.641 km/s
True Right ascension
17h 40m 08s
True Declination
0° 00' 00"
Sunlit
Object was in full shadow at epoch
Visualization orbit readout
Latitude
Unknown
Longitude
Unknown
Altitude
Unknown
Speed
Unknown
Apparent Right ascension
Unknown
Apparent Declination
Unknown
Sunlit
N/A
Visualization observer readout
Local Sidereal Time
21:34:52
Azimuth
Unknown
Elevation
Unknown
Doppler factor
Unknown
Orbital elements
Apogee altitude
460.423 km
Perigee altitude
455.338 km
Semi-major axis
6,836.018 km
Eccentricity
0.00037
Inclination
53.1558°
RAAN
265.0349°
Arg. of periapsis
329.8149°
True anomaly
30.28539°
Mean anomaly
30.2639°
Eccentric anomaly
30.27464°
Mean motion
3.84006 °/min
Orbital period
93.75 mins
BSTAR
0.00097517
Loading maneuver chart data...
Computing Atmospheric mass density...

Documentation

Showing up to 5 results
|